Location: Bryzozowice
(50.3667°N, 18.9667°E)
Time: 20:20:28
(UTC+00:00)

Cosmos 614 Rocket - Pass Details

Date: 24 January 2020
Orbit: 732 x 764 km, 74.1° (Epoch: 16 February)

Event Time Altitude Azimuth Distance (km) Brightness Sun altitude
Rises 17:37:29 0° 338° (NNW) 3,218 7.5 -21.2°
Reaches altitude 10° 17:39:55 10° 343° (NNW) 2,294 6.6 -21.6°
Maximum altitude 17:45:01 53° 60° (ENE) 937 4.1 -22.4°
Enters shadow 17:45:05 53° 64° (ENE) 937 4.0 -22.4°
